User: anonymous   Login
Location: Harburg
(48.7667°N, 10.6667°E)
Time: 11:59:56
(UTC+00:00)
Language:

Cosmos 1833 Rocket - Orbit

View from above orbital plane
View from above orbital plane
View from above satellite
View from above satellite

Ground track
Ground track

The orbit data is extracted from the following two-line orbital elements,

1 17590U 87027B   21166.87102245  .00000186  00000-0  11701-3 0  9999
2 17590  71.0032 316.0659 0006988 246.7983 113.2405 14.16799962770630
Epoch (UTC): 15 June 2021 20:54:16
Eccentricity: 0.0006988
inclination: 71.0032°
perigee height: 831 km
apogee height: 841 km
right ascension of ascending node: 316.0659°
argument of perigee: 246.7983°
revolutions per day: 14.16799962
mean anomaly at epoch: 113.2405°
orbit number at epoch: 77063

The dashed part of the orbit path shows where the satellite is in the earth's shadow,  

DLR